Time,TemperatureF,DewpointF,PressureIn,WindDirection,WindDirectionDegrees,WindSpeedMPH,WindSpeedGustMPH,Humidity,HourlyPrecipIn,Conditions,Clouds,dailyrainin,SoftwareType,DateUTC
2013-04-16 00:00:00,68.7,63.3,30.13,WSW,251,0.0,6.0,83,0.00,,,0.00,Wunderground v.1.15,2013-04-16 04:00:00,
2013-04-16 00:05:00,68.5,63.5,30.13,WSW,251,0.0,6.0,84,0.00,,,0.00,Wunderground v.1.15,2013-04-16 04:05:00,
2013-04-16 00:10:00,68.3,63.3,30.13,WSW,251,0.0,6.0,84,0.00,,,0.00,Wunderground v.1.15,2013-04-16 04:10:00,
2013-04-16 00:20:00,68.3,63.6,30.12,WSW,251,0.0,6.0,85,0.00,,,0.00,Wunderground v.1.15,2013-04-16 04:20:00,
2013-04-16 00:25:00,68.4,63.7,30.12,WSW,251,0.0,6.0,85,0.00,,,0.00,Wunderground v.1.15,2013-04-16 04:25:00,
2013-04-16 00:35:00,68.5,63.8,30.13,WSW,251,0.0,6.0,85,0.00,,,0.00,Wunderground v.1.15,2013-04-16 04:35:00,
2013-04-16 00:40:00,68.4,63.7,30.13,SW,224,1.0,6.0,85,0.00,,,0.00,Wunderground v.1.15,2013-04-16 04:40:00,
2013-04-16 00:45:00,68.4,64.0,30.13,South,191,1.0,6.0,86,0.00,,,0.00,Wunderground v.1.15,2013-04-16 04:45:00,
2013-04-16 00:55:00,68.2,64.2,30.12,SSW,198,1.0,6.0,87,0.00,,,0.00,Wunderground v.1.15,2013-04-16 04:55:00,
2013-04-16 01:00:00,68.1,64.1,30.12,SSW,198,0.0,6.0,87,0.00,,,0.00,Wunderground v.1.15,2013-04-16 05:00:00,
2013-04-16 01:05:00,68.1,64.4,30.13,SSW,198,0.0,6.0,88,0.00,,,0.00,Wunderground v.1.15,2013-04-16 05:05:00,
2013-04-16 01:10:00,68.1,64.7,30.13,SSW,198,0.0,6.0,89,0.00,,,0.00,Wunderground v.1.15,2013-04-16 05:10:00,
2013-04-16 01:15:00,68.1,64.7,30.12,SSW,198,0.0,6.0,89,0.00,,,0.00,Wunderground v.1.15,2013-04-16 05:15:00,
2013-04-16 01:20:00,68.1,64.7,30.12,SSW,197,1.0,6.0,89,0.00,,,0.00,Wunderground v.1.15,2013-04-16 05:20:00,
2013-04-16 01:25:00,68.0,65.0,30.13,SSW,192,2.0,6.0,90,0.00,,,0.00,Wunderground v.1.15,2013-04-16 05:25:00,
2013-04-16 01:30:00,68.0,65.0,30.12,South,191,1.0,1.0,90,0.00,,,0.00,Wunderground v.1.15,2013-04-16 05:30:00,
2013-04-16 01:35:00,67.9,65.2,30.12,South,191,0.0,6.0,91,0.00,,,0.00,Wunderground v.1.15,2013-04-16 05:35:00,
2013-04-16 01:40:00,67.8,65.1,30.12,South,191,0.0,6.0,91,0.00,,,0.00,Wunderground v.1.15,2013-04-16 05:40:00,
2013-04-16 01:45:00,67.7,65.0,30.11,South,191,0.0,6.0,91,0.00,,,0.00,Wunderground v.1.15,2013-04-16 05:45:00,
2013-04-16 01:55:00,67.4,65.0,30.12,South,191,0.0,6.0,92,0.00,,,0.00,Wunderground v.1.15,2013-04-16 05:55:00,
2013-04-16 02:00:00,67.3,64.9,30.11,South,191,0.0,6.0,92,0.00,,,0.00,Wunderground v.1.15,2013-04-16 06:00:00,
2013-04-16 02:05:00,67.2,65.1,30.11,South,191,0.0,6.0,93,0.00,,,0.00,Wunderground v.1.15,2013-04-16 06:05:00,
2013-04-16 02:15:00,67.0,64.9,30.11,South,191,0.0,6.0,93,0.00,,,0.00,Wunderground v.1.15,2013-04-16 06:15:00,
2013-04-16 02:20:00,66.8,64.7,30.11,South,191,0.0,6.0,93,0.00,,,0.00,Wunderground v.1.15,2013-04-16 06:20:00,
2013-04-16 02:25:00,66.7,64.9,30.11,South,191,0.0,6.0,94,0.00,,,0.00,Wunderground v.1.15,2013-04-16 06:25:00,
2013-04-16 02:30:00,66.7,64.9,30.11,South,191,0.0,6.0,94,0.00,,,0.00,Wunderground v.1.15,2013-04-16 06:30:00,
2013-04-16 02:35:00,66.6,64.8,30.11,South,191,0.0,6.0,94,0.00,,,0.00,Wunderground v.1.15,2013-04-16 06:35:00,
2013-04-16 02:40:00,66.6,64.8,30.11,South,191,0.0,6.0,94,0.00,,,0.00,Wunderground v.1.15,2013-04-16 06:40:00,
2013-04-16 02:45:00,66.6,64.8,30.11,South,191,0.0,6.0,94,0.00,,,0.00,Wunderground v.1.15,2013-04-16 06:45:00,
2013-04-16 02:50:00,66.5,64.7,30.11,South,191,0.0,6.0,94,0.00,,,0.00,Wunderground v.1.15,2013-04-16 06:50:00,
2013-04-16 02:55:00,66.5,64.7,30.11,South,191,1.0,6.0,94,0.00,,,0.00,Wunderground v.1.15,2013-04-16 06:55:00,
2013-04-16 03:05:00,66.4,64.6,30.10,SSW,195,2.0,6.0,94,0.00,,,0.00,Wunderground v.1.15,2013-04-16 07:05:00,
2013-04-16 03:10:00,66.3,64.8,30.10,SSW,197,1.0,6.0,95,0.00,,,0.00,Wunderground v.1.15,2013-04-16 07:10:00,
2013-04-16 03:15:00,66.3,64.8,30.10,South,185,1.0,6.0,95,0.00,,,0.00,Wunderground v.1.15,2013-04-16 07:15:00,
2013-04-16 03:20:00,66.2,64.7,30.10,South,185,1.0,1.0,95,0.00,,,0.00,Wunderground v.1.15,2013-04-16 07:20:00,
2013-04-16 03:25:00,66.1,64.6,30.10,South,185,0.0,6.0,95,0.00,,,0.00,Wunderground v.1.15,2013-04-16 07:25:00,
2013-04-16 03:30:00,66.1,64.6,30.10,South,185,0.0,6.0,95,0.00,,,0.00,Wunderground v.1.15,2013-04-16 07:30:00,
2013-04-16 03:35:00,66.0,64.5,30.10,South,185,0.0,6.0,95,0.00,,,0.00,Wunderground v.1.15,2013-04-16 07:35:00,
2013-04-16 03:40:00,66.0,64.5,30.10,South,185,0.0,6.0,95,0.00,,,0.00,Wunderground v.1.15,2013-04-16 07:40:00,
2013-04-16 03:45:00,65.9,64.4,30.10,South,185,0.0,6.0,95,0.00,,,0.00,Wunderground v.1.15,2013-04-16 07:45:00,
2013-04-16 03:50:00,65.8,64.3,30.10,South,185,0.0,6.0,95,0.00,,,0.00,Wunderground v.1.15,2013-04-16 07:50:00,
2013-04-16 03:55:00,65.8,64.3,30.09,South,185,0.0,6.0,95,0.00,,,0.00,Wunderground v.1.15,2013-04-16 07:55:00,
2013-04-16 04:05:00,65.8,64.3,30.10,South,185,0.0,6.0,95,0.00,,,0.00,Wunderground v.1.15,2013-04-16 08:05:00,
2013-04-16 04:10:00,65.7,64.2,30.09,South,185,0.0,6.0,95,0.00,,,0.00,Wunderground v.1.15,2013-04-16 08:10:00,
2013-04-16 04:15:00,65.7,64.2,30.09,SSW,193,0.0,6.0,95,0.00,,,0.00,Wunderground v.1.15,2013-04-16 08:15:00,
2013-04-16 04:20:00,65.7,64.2,30.09,SSW,193,0.0,6.0,95,0.00,,,0.00,Wunderground v.1.15,2013-04-16 08:20:00,
2013-04-16 04:25:00,65.6,64.1,30.09,SSW,195,0.0,6.0,95,0.00,,,0.00,Wunderground v.1.15,2013-04-16 08:25:00,
2013-04-16 04:35:00,65.5,64.0,30.09,SSW,195,1.0,6.0,95,0.00,,,0.00,Wunderground v.1.15,2013-04-16 08:35:00,
2013-04-16 04:40:00,65.4,63.9,30.09,SSW,195,0.0,6.0,95,0.00,,,0.00,Wunderground v.1.15,2013-04-16 08:40:00,
2013-04-16 04:45:00,65.5,64.3,30.10,SSW,196,0.0,6.0,96,0.00,,,0.00,Wunderground v.1.15,2013-04-16 08:45:00,
2013-04-16 04:50:00,65.5,64.3,30.10,SSW,196,1.0,1.0,96,0.00,,,0.00,Wunderground v.1.15,2013-04-16 08:50:00,
2013-04-16 04:55:00,65.5,64.3,30.10,SSW,197,1.0,6.0,96,0.00,,,0.00,Wunderground v.1.15,2013-04-16 08:55:00,
2013-04-16 05:05:00,65.5,64.3,30.10,SSW,198,1.0,6.0,96,0.00,,,0.00,Wunderground v.1.15,2013-04-16 09:05:00,
2013-04-16 05:10:00,65.5,64.3,30.10,SSW,197,0.0,6.0,96,0.00,,,0.00,Wunderground v.1.15,2013-04-16 09:10:00,
2013-04-16 05:15:00,65.6,64.4,30.10,SSW,198,0.0,6.0,96,0.00,,,0.00,Wunderground v.1.15,2013-04-16 09:15:00,
2013-04-16 05:20:00,65.6,64.4,30.10,SW,224,1.0,1.0,96,0.00,,,0.00,Wunderground v.1.15,2013-04-16 09:20:00,
2013-04-16 05:25:00,65.6,64.4,30.10,WSW,240,1.0,6.0,96,0.00,,,0.00,Wunderground v.1.15,2013-04-16 09:25:00,
2013-04-16 05:30:00,65.7,64.5,30.10,SW,231,1.0,1.0,96,0.00,,,0.00,Wunderground v.1.15,2013-04-16 09:30:00,
2013-04-16 05:35:00,65.7,64.5,30.10,WSW,243,1.0,6.0,96,0.00,,,0.00,Wunderground v.1.15,2013-04-16 09:35:00,
2013-04-16 05:40:00,65.8,64.6,30.10,SW,215,1.0,6.0,96,0.00,,,0.00,Wunderground v.1.15,2013-04-16 09:40:00,
2013-04-16 05:45:00,65.8,64.6,30.11,SSW,213,1.0,6.0,96,0.00,,,0.00,Wunderground v.1.15,2013-04-16 09:45:00,
2013-04-16 05:50:00,65.8,64.6,30.11,SW,214,1.0,1.0,96,0.00,,,0.00,Wunderground v.1.15,2013-04-16 09:50:00,
2013-04-16 05:55:00,65.9,64.7,30.11,SW,214,0.0,6.0,96,0.00,,,0.00,Wunderground v.1.15,2013-04-16 09:55:00,
2013-04-16 06:00:00,65.9,64.7,30.11,SSW,212,0.0,6.0,96,0.00,,,0.00,Wunderground v.1.15,2013-04-16 10:00:00,
2013-04-16 06:05:00,65.9,64.7,30.12,SSW,212,0.0,6.0,96,0.00,,,0.00,Wunderground v.1.15,2013-04-16 10:05:00,
2013-04-16 06:10:00,65.9,64.7,30.12,SSW,212,0.0,6.0,96,0.00,,,0.00,Wunderground v.1.15,2013-04-16 10:10:00,
2013-04-16 06:15:00,65.9,64.7,30.11,SW,222,1.0,6.0,96,0.00,,,0.00,Wunderground v.1.15,2013-04-16 10:15:00,
2013-04-16 06:20:00,65.9,64.7,30.12,SW,222,0.0,6.0,96,0.00,,,0.00,Wunderground v.1.15,2013-04-16 10:20:00,
2013-04-16 06:25:00,65.9,64.7,30.12,SW,222,0.0,6.0,96,0.00,,,0.00,Wunderground v.1.15,2013-04-16 10:25:00,
2013-04-16 06:30:00,65.9,64.7,30.12,SW,222,0.0,6.0,96,0.00,,,0.00,Wunderground v.1.15,2013-04-16 10:30:00,
2013-04-16 06:35:00,65.9,64.7,30.13,SW,216,1.0,6.0,96,0.00,,,0.00,Wunderground v.1.15,2013-04-16 10:35:00,
2013-04-16 06:45:00,65.9,65.0,30.13,SW,228,0.0,6.0,97,0.00,,,0.00,Wunderground v.1.15,2013-04-16 10:45:00,
2013-04-16 06:50:00,65.9,65.0,30.13,SW,228,0.0,6.0,97,0.00,,,0.00,Wunderground v.1.15,2013-04-16 10:50:00,
2013-04-16 06:55:00,65.9,65.0,30.14,SW,228,1.0,6.0,97,0.00,,,0.00,Wunderground v.1.15,2013-04-16 10:55:00,
2013-04-16 07:00:00,65.9,65.0,30.14,SW,218,1.0,1.0,97,0.00,,,0.00,Wunderground v.1.15,2013-04-16 11:00:00,
2013-04-16 07:05:00,65.9,65.0,30.14,SW,218,1.0,1.0,97,0.00,,,0.00,Wunderground v.1.15,2013-04-16 11:05:00,
2013-04-16 07:10:00,65.9,65.0,30.14,SW,216,0.0,3.0,97,0.00,,,0.00,Wunderground v.1.15,2013-04-16 11:10:00,
2013-04-16 07:15:00,65.9,65.0,30.15,SSW,212,1.0,3.0,97,0.00,,,0.00,Wunderground v.1.15,2013-04-16 11:15:00,
2013-04-16 07:20:00,66.0,65.1,30.15,SSW,212,1.0,1.0,97,0.00,,,0.00,Wunderground v.1.15,2013-04-16 11:20:00,
2013-04-16 07:25:00,66.1,65.2,30.15,SSW,211,0.0,1.0,97,0.00,,,0.00,Wunderground v.1.15,2013-04-16 11:25:00,
2013-04-16 07:30:00,66.1,65.2,30.15,SSW,211,0.0,0.0,97,0.00,,,0.00,Wunderground v.1.15,2013-04-16 11:30:00,
2013-04-16 07:35:00,66.2,65.3,30.16,SW,218,1.0,1.0,97,0.00,,,0.00,Wunderground v.1.15,2013-04-16 11:35:00,
2013-04-16 07:40:00,66.3,65.4,30.16,SW,222,1.0,1.0,97,0.00,,,0.00,Wunderground v.1.15,2013-04-16 11:40:00,
2013-04-16 07:45:00,66.3,65.4,30.16,SW,221,1.0,1.0,97,0.00,,,0.00,Wunderground v.1.15,2013-04-16 11:45:00,
2013-04-16 07:50:00,66.4,65.5,30.16,SW,222,0.0,0.0,97,0.00,,,0.00,Wunderground v.1.15,2013-04-16 11:50:00,
2013-04-16 07:55:00,66.6,65.7,30.16,SW,224,0.0,3.0,97,0.00,,,0.00,Wunderground v.1.15,2013-04-16 11:55:00,
2013-04-16 08:00:00,66.7,65.8,30.17,SW,230,0.0,3.0,97,0.00,,,0.00,Wunderground v.1.15,2013-04-16 12:00:00,
2013-04-16 08:10:00,66.9,66.0,30.17,SW,218,1.0,1.0,97,0.00,,,0.00,Wunderground v.1.15,2013-04-16 12:10:00,
2013-04-16 08:15:00,67.0,66.1,30.16,SW,218,1.0,5.0,97,0.00,,,0.00,Wunderground v.1.15,2013-04-16 12:15:00,
2013-04-16 08:20:00,67.2,66.3,30.17,WSW,244,1.0,1.0,97,0.00,,,0.00,Wunderground v.1.15,2013-04-16 12:20:00,
2013-04-16 08:25:00,67.2,66.3,30.17,SSW,198,1.0,5.0,97,0.00,,,0.00,Wunderground v.1.15,2013-04-16 12:25:00,
2013-04-16 08:30:00,67.3,66.4,30.17,South,189,1.0,1.0,97,0.00,,,0.00,Wunderground v.1.15,2013-04-16 12:30:00,
2013-04-16 08:40:00,67.7,66.8,30.17,SW,216,1.0,5.0,97,0.00,,,0.00,Wunderground v.1.15,2013-04-16 12:40:00,
2013-04-16 08:45:00,67.8,66.9,30.17,SW,217,2.0,5.0,97,0.00,,,0.00,Wunderground v.1.15,2013-04-16 12:45:00,
2013-04-16 08:50:00,68.2,67.3,30.17,SW,216,1.0,1.0,97,0.00,,,0.00,Wunderground v.1.15,2013-04-16 12:50:00,
2013-04-16 08:55:00,68.2,67.3,30.17,SW,216,1.0,5.0,97,0.00,,,0.00,Wunderground v.1.15,2013-04-16 12:55:00,
2013-04-16 09:00:00,68.5,67.6,30.17,SW,221,1.0,1.0,97,0.00,,,0.00,Wunderground v.1.15,2013-04-16 13:00:00,
2013-04-16 09:05:00,68.7,67.8,30.17,SW,222,0.0,5.0,97,0.00,,,0.00,Wunderground v.1.15,2013-04-16 13:05:00,
2013-04-16 09:10:00,69.0,68.1,30.17,SW,215,1.0,5.0,97,0.00,,,0.00,Wunderground v.1.15,2013-04-16 13:10:00,
2013-04-16 09:15:00,69.3,68.4,30.17,South,190,1.0,5.0,97,0.00,,,0.00,Wunderground v.1.15,2013-04-16 13:15:00,
2013-04-16 09:20:00,69.3,68.4,30.18,SW,224,1.0,1.0,97,0.00,,,0.00,Wunderground v.1.15,2013-04-16 13:20:00,
2013-04-16 09:25:00,69.7,68.8,30.18,SW,231,1.0,4.0,97,0.00,,,0.00,Wunderground v.1.15,2013-04-16 13:25:00,
2013-04-16 09:30:00,70.1,69.2,30.18,SW,224,1.0,1.0,97,0.00,,,0.00,Wunderground v.1.15,2013-04-16 13:30:00,
2013-04-16 09:35:00,70.9,69.7,30.18,West,276,1.0,5.0,96,0.00,,,0.00,Wunderground v.1.15,2013-04-16 13:35:00,
2013-04-16 09:45:00,73.1,71.6,30.18,NW,322,1.0,5.0,95,0.00,,,0.00,Wunderground v.1.15,2013-04-16 13:45:00,
2013-04-16 09:50:00,73.8,71.3,30.18,West,267,1.0,5.0,92,0.00,,,0.00,Wunderground v.1.15,2013-04-16 13:50:00,
2013-04-16 09:55:00,75.0,72.2,30.18,WSW,254,2.0,5.0,91,0.00,,,0.00,Wunderground v.1.15,2013-04-16 13:55:00,
2013-04-16 10:00:00,75.7,71.6,30.18,SSW,199,2.0,5.0,87,0.00,,,0.00,Wunderground v.1.15,2013-04-16 14:00:00,
2013-04-16 10:05:00,76.4,71.6,30.18,WSW,243,2.0,5.0,85,0.00,,,0.00,Wunderground v.1.15,2013-04-16 14:05:00,
2013-04-16 10:10:00,76.9,71.3,30.18,SSW,208,2.0,5.0,83,0.00,,,0.00,Wunderground v.1.15,2013-04-16 14:10:00,
2013-04-16 10:20:00,78.1,70.7,30.18,WSW,241,2.0,2.0,78,0.00,,,0.00,Wunderground v.1.15,2013-04-16 14:20:00,
2013-04-16 10:25:00,78.5,70.7,30.18,WSW,245,2.0,5.0,77,0.00,,,0.00,Wunderground v.1.15,2013-04-16 14:25:00,
2013-04-16 10:30:00,79.1,70.1,30.18,SW,229,3.0,5.0,74,0.00,,,0.00,Wunderground v.1.15,2013-04-16 14:30:00,
2013-04-16 10:35:00,79.3,69.9,30.19,West,259,3.0,5.0,73,0.00,,,0.00,Wunderground v.1.15,2013-04-16 14:35:00,
2013-04-16 10:45:00,79.8,70.0,30.18,SSW,206,2.0,5.0,72,0.00,,,0.00,Wunderground v.1.15,2013-04-16 14:45:00,
2013-04-16 10:50:00,80.7,70.8,30.19,NNE,20,2.0,5.0,72,0.00,,,0.00,Wunderground v.1.15,2013-04-16 14:50:00,
2013-04-16 10:55:00,80.5,70.6,30.19,West,277,2.0,5.0,72,0.00,,,0.00,Wunderground v.1.15,2013-04-16 14:55:00,
2013-04-16 11:00:00,81.0,70.3,30.19,SW,232,1.0,1.0,70,0.00,,,0.00,Wunderground v.1.15,2013-04-16 15:00:00,
2013-04-16 11:05:00,81.0,69.9,30.19,West,266,2.0,3.0,69,0.00,,,0.00,Wunderground v.1.15,2013-04-16 15:05:00,
2013-04-16 11:10:00,80.7,70.0,30.19,WNW,285,3.0,3.0,70,0.00,,,0.00,Wunderground v.1.15,2013-04-16 15:10:00,
2013-04-16 11:15:00,80.9,70.2,30.19,WSW,256,3.0,5.0,70,0.00,,,0.00,Wunderground v.1.15,2013-04-16 15:15:00,
2013-04-16 11:20:00,81.4,69.8,30.19,WSW,245,3.0,3.0,68,0.00,,,0.00,Wunderground v.1.15,2013-04-16 15:20:00,
2013-04-16 11:25:00,81.8,70.2,30.19,NW,310,2.0,5.0,68,0.00,,,0.00,Wunderground v.1.15,2013-04-16 15:25:00,
2013-04-16 11:30:00,82.0,70.0,30.19,SSW,197,2.0,5.0,67,0.00,,,0.00,Wunderground v.1.15,2013-04-16 15:30:00,
2013-04-16 11:40:00,82.6,69.6,30.19,SW,229,3.0,12.0,65,0.00,,,0.00,Wunderground v.1.15,2013-04-16 15:40:00,
2013-04-16 11:45:00,82.3,68.4,30.19,WSW,241,3.0,12.0,63,0.00,,,0.00,Wunderground v.1.15,2013-04-16 15:45:00,
2013-04-16 11:55:00,82.7,68.8,30.19,SSW,210,2.0,5.0,63,0.00,,,0.00,Wunderground v.1.15,2013-04-16 15:55:00,
2013-04-16 12:00:00,82.8,68.9,30.19,West,267,3.0,5.0,63,0.00,,,0.00,Wunderground v.1.15,2013-04-16 16:00:00,
2013-04-16 12:10:00,83.6,70.1,30.19,West,260,2.0,2.0,64,0.00,,,0.00,Wunderground v.1.15,2013-04-16 16:10:00,
2013-04-16 12:15:00,83.1,69.2,30.18,WSW,251,2.0,4.0,63,0.00,,,0.00,Wunderground v.1.15,2013-04-16 16:15:00,
2013-04-16 12:20:00,84.0,70.0,30.18,WNW,289,2.0,2.0,63,0.00,,,0.00,Wunderground v.1.15,2013-04-16 16:20:00,
2013-04-16 12:25:00,83.3,69.4,30.18,SW,226,2.0,5.0,63,0.00,,,0.00,Wunderground v.1.15,2013-04-16 16:25:00,
2013-04-16 12:30:00,82.9,69.9,30.18,SSW,199,2.0,7.0,65,0.00,,,0.00,Wunderground v.1.15,2013-04-16 16:30:00,
2013-04-16 12:35:00,83.9,70.9,30.18,SSE,168,2.0,7.0,65,0.00,,,0.00,Wunderground v.1.15,2013-04-16 16:35:00,
2013-04-16 12:40:00,82.8,69.4,30.18,SW,229,2.0,5.0,64,0.00,,,0.00,Wunderground v.1.15,2013-04-16 16:40:00,
2013-04-16 12:45:00,84.1,69.7,30.18,SW,232,1.0,5.0,62,0.00,,,0.00,Wunderground v.1.15,2013-04-16 16:45:00,
2013-04-16 12:50:00,84.6,70.6,30.18,WSW,248,2.0,2.0,63,0.00,,,0.00,Wunderground v.1.15,2013-04-16 16:50:00,
2013-04-16 12:55:00,84.7,69.8,30.17,South,175,2.0,12.0,61,0.00,,,0.00,Wunderground v.1.15,2013-04-16 16:55:00,
2013-04-16 13:00:00,83.8,68.9,30.17,South,175,2.0,2.0,61,0.00,,,0.00,Wunderground v.1.15,2013-04-16 17:00:00,
2013-04-16 13:05:00,83.1,69.7,30.17,West,279,2.0,5.0,64,0.00,,,0.00,Wunderground v.1.15,2013-04-16 17:05:00,
2013-04-16 13:10:00,85.1,70.1,30.16,WSW,257,2.0,5.0,61,0.00,,,0.00,Wunderground v.1.15,2013-04-16 17:10:00,
2013-04-16 13:20:00,84.2,69.8,30.16,SW,215,3.0,3.0,62,0.00,,,0.00,Wunderground v.1.15,2013-04-16 17:20:00,
2013-04-16 13:25:00,85.0,70.5,30.16,West,270,2.0,5.0,62,0.00,,,0.00,Wunderground v.1.15,2013-04-16 17:25:00,
2013-04-16 13:30:00,84.1,69.7,30.16,South,190,2.0,2.0,62,0.00,,,0.00,Wunderground v.1.15,2013-04-16 17:30:00,
2013-04-16 13:35:00,83.6,69.7,30.16,SSW,207,2.0,5.0,63,0.00,,,0.00,Wunderground v.1.15,2013-04-16 17:35:00,
2013-04-16 13:40:00,83.2,68.8,30.16,West,260,1.0,1.0,62,0.00,,,0.00,Wunderground v.1.15,2013-04-16 17:40:00,
2013-04-16 13:45:00,84.6,70.6,30.16,WSW,237,2.0,9.0,63,0.00,,,0.00,Wunderground v.1.15,2013-04-16 17:45:00,
2013-04-16 13:50:00,84.5,69.1,30.16,SW,215,4.0,4.0,60,0.00,,,0.00,Wunderground v.1.15,2013-04-16 17:50:00,
2013-04-16 13:55:00,84.5,70.5,30.16,SW,220,4.0,6.0,63,0.00,,,0.00,Wunderground v.1.15,2013-04-16 17:55:00,
2013-04-16 14:00:00,85.8,70.8,30.15,WSW,245,2.0,2.0,61,0.00,,,0.00,Wunderground v.1.15,2013-04-16 18:00:00,
2013-04-16 14:05:00,86.4,69.9,30.15,South,189,2.0,5.0,58,0.00,,,0.00,Wunderground v.1.15,2013-04-16 18:05:00,
2013-04-16 14:10:00,86.5,70.0,30.15,NW,306,2.0,5.0,58,0.00,,,0.00,Wunderground v.1.15,2013-04-16 18:10:00,
2013-04-16 14:20:00,84.1,69.7,30.15,SSW,203,3.0,5.0,62,0.00,,,0.00,Wunderground v.1.15,2013-04-16 18:20:00,
2013-04-16 14:25:00,83.9,70.0,30.15,WNW,288,3.0,5.0,63,0.00,,,0.00,Wunderground v.1.15,2013-04-16 18:25:00,
2013-04-16 14:30:00,84.9,70.4,30.15,West,265,3.0,3.0,62,0.00,,,0.00,Wunderground v.1.15,2013-04-16 18:30:00,
2013-04-16 14:35:00,86.3,70.3,30.14,West,278,3.0,6.0,59,0.00,,,0.00,Wunderground v.1.15,2013-04-16 18:35:00,
2013-04-16 14:40:00,86.2,70.2,30.15,West,280,3.0,7.0,59,0.00,,,0.00,Wunderground v.1.15,2013-04-16 18:40:00,
2013-04-16 14:45:00,85.3,70.3,30.15,SW,224,3.0,7.0,61,0.00,,,0.00,Wunderground v.1.15,2013-04-16 18:45:00,
2013-04-16 14:50:00,84.6,69.7,30.15,SSW,209,3.0,3.0,61,0.00,,,0.00,Wunderground v.1.15,2013-04-16 18:50:00,
2013-04-16 14:55:00,84.1,69.7,30.14,SSW,208,2.0,5.0,62,0.00,,,0.00,Wunderground v.1.15,2013-04-16 18:55:00,
2013-04-16 15:00:00,83.9,69.0,30.14,SW,220,2.0,2.0,61,0.00,,,0.00,Wunderground v.1.15,2013-04-16 19:00:00,
2013-04-16 15:05:00,83.4,69.5,30.14,West,262,2.0,5.0,63,0.00,,,0.00,Wunderground v.1.15,2013-04-16 19:05:00,
2013-04-16 15:10:00,84.7,70.7,30.14,SW,226,2.0,2.0,63,0.00,,,0.00,Wunderground v.1.15,2013-04-16 19:10:00,
2013-04-16 15:15:00,85.9,70.9,30.14,West,280,3.0,3.0,61,0.00,,,0.00,Wunderground v.1.15,2013-04-16 19:15:00,
2013-04-16 15:20:00,86.5,71.0,30.14,West,272,2.0,2.0,60,0.00,,,0.00,Wunderground v.1.15,2013-04-16 19:20:00,
2013-04-16 15:25:00,85.2,69.7,30.14,SW,232,2.0,5.0,60,0.00,,,0.00,Wunderground v.1.15,2013-04-16 19:25:00,
2013-04-16 15:30:00,85.0,70.0,30.14,SW,220,2.0,5.0,61,0.00,,,0.00,Wunderground v.1.15,2013-04-16 19:30:00,
2013-04-16 15:40:00,85.9,70.4,30.14,SSW,192,4.0,4.0,60,0.00,,,0.00,Wunderground v.1.15,2013-04-16 19:40:00,
2013-04-16 15:50:00,85.5,70.0,30.14,SW,214,3.0,5.0,60,0.00,,,0.00,Wunderground v.1.15,2013-04-16 19:50:00,
2013-04-16 15:55:00,84.7,69.8,30.14,WSW,247,3.0,5.0,61,0.00,,,0.00,Wunderground v.1.15,2013-04-16 19:55:00,
2013-04-16 16:00:00,83.8,69.9,30.13,SW,219,2.0,2.0,63,0.00,,,0.00,Wunderground v.1.15,2013-04-16 20:00:00,
2013-04-16 16:05:00,83.1,69.2,30.13,South,185,2.0,4.0,63,0.00,,,0.00,Wunderground v.1.15,2013-04-16 20:05:00,
2013-04-16 16:10:00,84.3,69.9,30.13,WSW,245,4.0,4.0,62,0.00,,,0.00,Wunderground v.1.15,2013-04-16 20:10:00,
2013-04-16 16:15:00,85.4,69.9,30.13,WNW,299,4.0,6.0,60,0.00,,,0.00,Wunderground v.1.15,2013-04-16 20:15:00,
2013-04-16 16:20:00,84.7,69.3,30.13,WSW,252,5.0,7.0,60,0.00,,,0.00,Wunderground v.1.15,2013-04-16 20:20:00,
2013-04-16 16:25:00,83.7,69.3,30.13,SSW,208,4.0,7.0,62,0.00,,,0.00,Wunderground v.1.15,2013-04-16 20:25:00,
2013-04-16 16:30:00,84.2,69.8,30.13,SW,233,2.0,5.0,62,0.00,,,0.00,Wunderground v.1.15,2013-04-16 20:30:00,
2013-04-16 16:35:00,85.0,70.0,30.13,SSW,210,2.0,5.0,61,0.00,,,0.00,Wunderground v.1.15,2013-04-16 20:35:00,
2013-04-16 16:40:00,85.0,70.0,30.13,WNW,285,3.0,5.0,61,0.00,,,0.00,Wunderground v.1.15,2013-04-16 20:40:00,
2013-04-16 16:50:00,84.1,69.7,30.13,SW,232,3.0,3.0,62,0.00,,,0.00,Wunderground v.1.15,2013-04-16 20:50:00,
2013-04-16 16:55:00,84.3,69.9,30.13,SSW,192,3.0,5.0,62,0.00,,,0.00,Wunderground v.1.15,2013-04-16 20:55:00,
2013-04-16 17:05:00,83.4,69.0,30.13,WSW,243,2.0,5.0,62,0.00,,,0.00,Wunderground v.1.15,2013-04-16 21:05:00,
2013-04-16 17:10:00,83.4,69.0,30.14,WNW,293,3.0,5.0,62,0.00,,,0.00,Wunderground v.1.15,2013-04-16 21:10:00,
2013-04-16 17:15:00,83.0,69.1,30.13,WSW,240,3.0,10.0,63,0.00,,,0.00,Wunderground v.1.15,2013-04-16 21:15:00,
2013-04-16 17:20:00,83.6,68.7,30.14,NNE,15,4.0,4.0,61,0.00,,,0.00,Wunderground v.1.15,2013-04-16 21:20:00,
2013-04-16 17:25:00,82.9,68.5,30.14,WSW,250,3.0,7.0,62,0.00,,,0.00,Wunderground v.1.15,2013-04-16 21:25:00,
2013-04-16 17:30:00,82.0,68.2,30.14,SW,233,2.0,2.0,63,0.00,,,0.00,Wunderground v.1.15,2013-04-16 21:30:00,
2013-04-16 17:35:00,81.6,67.8,30.14,WSW,242,2.0,10.0,63,0.00,,,0.00,Wunderground v.1.15,2013-04-16 21:35:00,
2013-04-16 17:40:00,81.5,68.1,30.15,SW,229,2.0,5.0,64,0.00,,,0.00,Wunderground v.1.15,2013-04-16 21:40:00,
2013-04-16 17:45:00,82.0,68.2,30.15,SW,221,2.0,5.0,63,0.00,,,0.00,Wunderground v.1.15,2013-04-16 21:45:00,
2013-04-16 17:50:00,81.6,68.2,30.15,SSW,210,2.0,5.0,64,0.00,,,0.00,Wunderground v.1.15,2013-04-16 21:50:00,
2013-04-16 17:55:00,81.2,67.9,30.15,South,191,2.0,5.0,64,0.00,,,0.00,Wunderground v.1.15,2013-04-16 21:55:00,
2013-04-16 18:00:00,81.0,68.1,30.15,South,189,2.0,2.0,65,0.00,,,0.00,Wunderground v.1.15,2013-04-16 22:00:00,
2013-04-16 18:05:00,81.1,68.2,30.15,SW,222,2.0,5.0,65,0.00,,,0.00,Wunderground v.1.15,2013-04-16 22:05:00,
2013-04-16 18:10:00,81.2,67.9,30.15,SW,230,2.0,5.0,64,0.00,,,0.00,Wunderground v.1.15,2013-04-16 22:10:00,
2013-04-16 18:15:00,81.0,67.7,30.15,SW,219,3.0,5.0,64,0.00,,,0.00,Wunderground v.1.15,2013-04-16 22:15:00,
2013-04-16 18:20:00,80.9,67.6,30.15,South,180,4.0,7.0,64,0.00,,,0.00,Wunderground v.1.15,2013-04-16 22:20:00,
2013-04-16 18:25:00,80.8,67.5,30.15,WSW,255,4.0,7.0,64,0.00,,,0.00,Wunderground v.1.15,2013-04-16 22:25:00,
2013-04-16 18:30:00,80.7,67.4,30.15,SSW,205,4.0,4.0,64,0.00,,,0.00,Wunderground v.1.15,2013-04-16 22:30:00,
2013-04-16 18:35:00,80.5,67.6,30.15,WSW,241,5.0,5.0,65,0.00,,,0.00,Wunderground v.1.15,2013-04-16 22:35:00,
2013-04-16 18:40:00,80.4,67.6,30.15,South,185,4.0,5.0,65,0.00,,,0.00,Wunderground v.1.15,2013-04-16 22:40:00,
2013-04-16 18:45:00,80.0,67.2,30.15,SSW,192,4.0,7.0,65,0.00,,,0.00,Wunderground v.1.15,2013-04-16 22:45:00,
2013-04-16 18:50:00,79.6,67.2,30.15,SW,217,5.0,9.0,66,0.00,,,0.00,Wunderground v.1.15,2013-04-16 22:50:00,
2013-04-16 19:00:00,78.9,66.6,30.16,SW,218,3.0,5.0,66,0.00,,,0.00,Wunderground v.1.15,2013-04-16 23:00:00,
2013-04-16 19:05:00,78.6,66.7,30.16,SW,217,3.0,5.0,67,0.00,,,0.00,Wunderground v.1.15,2013-04-16 23:05:00,
2013-04-16 19:10:00,78.3,66.4,30.16,SW,220,3.0,5.0,67,0.00,,,0.00,Wunderground v.1.15,2013-04-16 23:10:00,
2013-04-16 19:15:00,78.0,66.2,30.16,West,259,3.0,5.0,67,0.00,,,0.00,Wunderground v.1.15,2013-04-16 23:15:00,
2013-04-16 19:20:00,77.7,65.9,30.16,South,180,3.0,6.0,67,0.00,,,0.00,Wunderground v.1.15,2013-04-16 23:20:00,
2013-04-16 19:30:00,77.2,65.8,30.17,WNW,286,2.0,2.0,68,0.00,,,0.00,Wunderground v.1.15,2013-04-16 23:30:00,
2013-04-16 19:35:00,76.9,65.5,30.17,SW,224,2.0,5.0,68,0.00,,,0.00,Wunderground v.1.15,2013-04-16 23:35:00,
2013-04-16 19:40:00,76.6,65.7,30.17,South,175,2.0,6.0,69,0.00,,,0.00,Wunderground v.1.15,2013-04-16 23:40:00,
2013-04-16 19:45:00,76.4,65.5,30.17,South,189,2.0,6.0,69,0.00,,,0.00,Wunderground v.1.15,2013-04-16 23:45:00,
2013-04-16 19:50:00,76.0,65.5,30.17,SW,221,2.0,5.0,70,0.00,,,0.00,Wunderground v.1.15,2013-04-16 23:50:00,
2013-04-16 19:55:00,75.8,65.3,30.17,SSW,193,1.0,5.0,70,0.00,,,0.00,Wunderground v.1.15,2013-04-16 23:55:00,
2013-04-16 20:00:00,75.5,65.4,30.17,SSW,211,2.0,2.0,71,0.00,,,0.00,Wunderground v.1.15,2013-04-17 00:00:00,
2013-04-16 20:05:00,75.2,65.6,30.17,SW,218,2.0,4.0,72,0.00,,,0.00,Wunderground v.1.15,2013-04-17 00:05:00,
2013-04-16 20:10:00,75.1,65.5,30.17,SW,220,2.0,5.0,72,0.00,,,0.00,Wunderground v.1.15,2013-04-17 00:10:00,
2013-04-16 20:15:00,74.8,65.2,30.17,SSW,205,1.0,5.0,72,0.00,,,0.00,Wunderground v.1.15,2013-04-17 00:15:00,
2013-04-16 20:25:00,74.2,65.4,30.17,SSW,208,1.0,6.0,74,0.00,,,0.00,Wunderground v.1.15,2013-04-17 00:25:00,
2013-04-16 20:30:00,74.0,65.2,30.17,SSW,193,1.0,5.0,74,0.00,,,0.00,Wunderground v.1.15,2013-04-17 00:30:00,
2013-04-16 20:40:00,73.5,65.5,30.17,SW,224,1.0,1.0,76,0.00,,,0.00,Wunderground v.1.15,2013-04-17 00:40:00,
2013-04-16 20:45:00,73.4,65.4,30.18,WSW,241,1.0,5.0,76,0.00,,,0.00,Wunderground v.1.15,2013-04-17 00:45:00,
2013-04-16 20:50:00,73.1,65.1,30.18,SW,233,1.0,1.0,76,0.00,,,0.00,Wunderground v.1.15,2013-04-17 00:50:00,
2013-04-16 20:55:00,73.0,65.4,30.18,SW,224,1.0,5.0,77,0.00,,,0.00,Wunderground v.1.15,2013-04-17 00:55:00,
2013-04-16 21:00:00,72.8,65.2,30.18,WSW,246,1.0,1.0,77,0.00,,,0.00,Wunderground v.1.15,2013-04-17 01:00:00,
2013-04-16 21:05:00,72.6,65.3,30.18,WSW,239,0.0,5.0,78,0.00,,,0.00,Wunderground v.1.15,2013-04-17 01:05:00,
2013-04-16 21:10:00,72.5,65.2,30.18,WSW,252,1.0,1.0,78,0.00,,,0.00,Wunderground v.1.15,2013-04-17 01:10:00,
2013-04-16 21:15:00,72.3,65.4,30.18,WSW,249,1.0,5.0,79,0.00,,,0.00,Wunderground v.1.15,2013-04-17 01:15:00,
2013-04-16 21:20:00,72.0,65.5,30.19,WSW,243,1.0,1.0,80,0.00,,,0.00,Wunderground v.1.15,2013-04-17 01:20:00,
2013-04-16 21:30:00,71.5,65.4,30.19,West,264,0.0,5.0,81,0.00,,,0.00,Wunderground v.1.15,2013-04-17 01:30:00,
2013-04-16 21:35:00,71.3,65.2,30.19,WSW,258,0.0,5.0,81,0.00,,,0.00,Wunderground v.1.15,2013-04-17 01:35:00,
2013-04-16 21:45:00,70.8,65.0,30.19,WSW,257,0.0,5.0,82,0.00,,,0.00,Wunderground v.1.15,2013-04-17 01:45:00,
2013-04-16 21:55:00,70.2,65.1,30.20,WSW,257,0.0,5.0,84,0.00,,,0.00,Wunderground v.1.15,2013-04-17 01:55:00,
2013-04-16 22:00:00,69.9,64.8,30.20,WSW,257,0.0,5.0,84,0.00,,,0.00,Wunderground v.1.15,2013-04-17 02:00:00,
2013-04-16 22:05:00,69.6,64.9,30.20,WSW,257,0.0,5.0,85,0.00,,,0.00,Wunderground v.1.15,2013-04-17 02:05:00,
2013-04-16 22:10:00,69.3,64.9,30.20,WSW,257,0.0,5.0,86,0.00,,,0.00,Wunderground v.1.15,2013-04-17 02:10:00,
2013-04-16 22:15:00,69.1,64.7,30.20,WSW,257,0.0,5.0,86,0.00,,,0.00,Wunderground v.1.15,2013-04-17 02:15:00,
2013-04-16 22:20:00,68.8,64.8,30.20,WSW,257,0.0,5.0,87,0.00,,,0.00,Wunderground v.1.15,2013-04-17 02:20:00,
2013-04-16 22:25:00,68.7,65.0,30.20,WSW,257,0.0,5.0,88,0.00,,,0.00,Wunderground v.1.15,2013-04-17 02:25:00,
2013-04-16 22:30:00,68.6,64.6,30.20,WSW,257,0.0,5.0,87,0.00,,,0.00,Wunderground v.1.15,2013-04-17 02:30:00,
2013-04-16 22:35:00,68.5,64.8,30.20,WSW,257,0.0,5.0,88,0.00,,,0.00,Wunderground v.1.15,2013-04-17 02:35:00,
2013-04-16 22:45:00,68.2,64.8,30.20,WSW,257,0.0,5.0,89,0.00,,,0.00,Wunderground v.1.15,2013-04-17 02:45:00,
2013-04-16 22:50:00,68.1,64.7,30.20,WSW,257,0.0,5.0,89,0.00,,,0.00,Wunderground v.1.15,2013-04-17 02:50:00,
2013-04-16 22:55:00,68.1,64.7,30.20,WSW,257,0.0,5.0,89,0.00,,,0.00,Wunderground v.1.15,2013-04-17 02:55:00,
2013-04-16 23:00:00,68.1,64.7,30.19,WSW,257,0.0,5.0,89,0.00,,,0.00,Wunderground v.1.15,2013-04-17 03:00:00,
2013-04-16 23:05:00,68.0,64.6,30.19,WSW,257,0.0,5.0,89,0.00,,,0.00,Wunderground v.1.15,2013-04-17 03:05:00,
2013-04-16 23:10:00,68.1,65.1,30.19,WSW,257,0.0,5.0,90,0.00,,,0.00,Wunderground v.1.15,2013-04-17 03:10:00,
2013-04-16 23:20:00,67.6,64.6,30.18,WSW,257,0.0,5.0,90,0.00,,,0.00,Wunderground v.1.15,2013-04-17 03:20:00,
2013-04-16 23:25:00,67.6,64.6,30.19,WSW,257,0.0,5.0,90,0.00,,,0.00,Wunderground v.1.15,2013-04-17 03:25:00,
2013-04-16 23:30:00,67.6,65.2,30.19,WSW,257,0.0,5.0,92,0.00,,,0.00,Wunderground v.1.15,2013-04-17 03:30:00,
2013-04-16 23:40:00,67.5,64.8,30.19,WSW,257,0.0,5.0,91,0.00,,,0.00,Wunderground v.1.15,2013-04-17 03:40:00,
2013-04-16 23:50:00,67.2,64.8,30.19,WSW,257,0.0,5.0,92,0.00,,,0.00,Wunderground v.1.15,2013-04-17 03:50:00,
2013-04-16 23:55:00,67.0,64.6,30.19,WSW,257,0.0,5.0,92,0.00,,,0.00,Wunderground v.1.15,2013-04-17 03:55:00,